Location: Unspecified
(0.0000°N, 0.0000°E)
Time: 10:22:36
(UTC+00:00)

Vanguard 3 - Visible Passes

Search period start: 16 October 2018 00:00
Search period end: 26 October 2018 00:00
Orbit: 507 x 3265 km, 33.4° (Epoch: 16 October)

Date Brightness Start Highest point End Pass type
(mag) Time Alt. Az. Time Alt. Az. Time Alt. Az.
16 Oct 10.7 18:44:20 10° NNW 18:57:46 21° NNE 19:06:24 15° NE visible
16 Oct 10.5 21:01:13 10° NW 21:10:59 31° NNW 21:10:59 31° NNW visible
17 Oct 10.3 19:44:13 10° NNW 20:00:09 31° NNE 20:01:21 31° NNE visible
17 Oct 10.9 22:00:54 10° NW 22:05:56 22° NW 22:05:56 22° NW visible
18 Oct 10.6 18:27:19 10° NNW 18:41:51 24° NNE 18:51:48 15° ENE visible
18 Oct 10.1 20:43:40 10° NW 20:56:24 41° N 20:56:24 41° N visible
19 Oct 10.1 19:26:48 10° NW 19:44:00 36° NNE 19:46:57 34° NE visible
19 Oct 10.6 21:43:33 10° NW 21:51:33 31° NW 21:51:33 31° NW visible
20 Oct 10.6 18:10:18 10° NNW 18:25:48 27° NNE 18:37:36 14° ENE visible
20 Oct 9.8 20:26:12 10° NW 20:42:13 53° N 20:42:13 53° N visible
20 Oct 11.2 22:44:33 10° WNW 22:46:50 15° WNW 22:46:50 15° WNW visible
21 Oct 10.0 19:09:29 10° NW 19:27:40 42° NNE 19:33:00 35° ENE visible
21 Oct 10.2 21:26:15 10° NW 21:37:37 44° NW 21:37:37 44° NW visible
22 Oct 10.6 17:53:20 10° NNW 18:09:33 31° NNE 18:23:54 11° E visible
22 Oct 9.5 20:08:51 10° NW 20:28:25 66° NNE 20:28:32 66° NE visible
22 Oct 10.9 22:27:39 10° WNW 22:33:10 23° WNW 22:33:10 23° WNW visible
23 Oct 10.0 18:52:16 10° NW 19:11:08 47° NNE 19:19:35 31° E visible
23 Oct 9.8 21:09:03 10° WNW 21:24:14 61° WNW 21:24:14 61° WNW visible
24 Oct 10.6 17:36:26 10° NNW 17:53:09 34° NNE 18:08:48 10° E visible
24 Oct 9.5 19:51:36 10° NW 20:11:44 74° NE 20:15:28 61° E visible
24 Oct 10.6 22:10:51 10° WNW 22:20:08 31° W 22:20:08 31° W visible
25 Oct 10.1 18:35:10 10° NW 18:54:25 54° NNE 19:06:50 21° E visible
25 Oct 9.6 20:51:59 10° WNW 21:11:28 71° SW 21:11:32 71° SW visible
25 Oct 11.3 23:15:17 10° W 23:16:13 11° W 23:16:13 11° W visible
